Tracking 18844 objects as of 21-Nov-2017
HD Live streaming from Space Station
objects crossing your sky now

NILESAT 102

Track NILESAT 102 now!
NILESAT 102 is classified as:


NORAD ID: 26470
Int'l Code: 2000-046B
Perigee: 35,768.2 km
Apogee: 35,818.5 km
Inclination: 2.0 °
Period: 1,436.1 minutes
Semi major axis: 42164 km
RCS: 27.8959 m2 (large)
Launch date: August 17, 2000
Source: Egypt (EGYP)
Launch site: FRENCH GUIANA (FRGUI)

Large parts of the Arab world, the Middle East, north and central Africa and southern Europe.
aabbcc
Your satellite tracking list
Your tracking list is empty




NASA's NSSDC Master Catalog

Two Line Element Set (TLE):
1 26470U 00046B   17325.02110010 -.00000054  00000-0  00000+0 0  9991
2 26470   2.0052  82.9219 0005961 169.7016 168.2547  1.00273208 63254
Source of the keplerian elements: AFSPC